EB1TR-13 Weather Reports


time (UTC)temp
C
wind
direction
speed
KPH
gust
KPH
rain 1hr
cm
rain 24hr
cm
rain mn
cm
humidity
%
barometer
mb
20260508071552 12 35 1.6 1.6 0.00 0.00 0.00 99 1007.0
20260508070052 12 35 1.6 1.6 0.00 0.00 0.00 99 1007.0
20260508064552 11 35 1.6 1.6 0.00 0.00 0.00 99 1007.0
20260508063052 11 35 1.6 1.6 0.00 0.00 0.00 99 1007.0
20260508061553 11 143 1.6 1.6 0.00 0.00 0.00 99 1007.0
20260508060052 11 143 1.6 1.6 0.00 0.00 0.00 98 1007.0
20260508054553 11 143 1.6 1.6 0.00 0.00 0.00 97 1007.0
20260508053052 11 143 1.6 1.6 0.00 0.00 0.00 96 1007.0
20260508051552 11 143 1.6 1.6 0.00 0.00 0.00 96 1007.0
20260508050052 11 143 1.6 1.6 0.00 0.00 0.00 97 1007.0
20260508044552 11 143 1.6 1.6 0.00 0.00 0.00 96 1007.0
20260508043053 11 143 1.6 1.6 0.00 0.00 0.00 97 1007.0
20260508041552 11 143 1.6 1.6 0.00 0.00 0.00 97 1007.0
20260508040052 11 143 1.6 1.6 0.00 0.00 0.00 97 1008.0
20260508034552 11 143 1.6 1.6 0.00 0.00 0.00 97 1008.0
20260508033052 11 143 1.6 1.6 0.00 0.00 0.00 97 1008.0
20260508031552 11 143 1.6 1.6 0.00 0.00 0.00 97 1008.0
20260508030052 11 143 1.6 1.6 0.00 0.00 0.00 97 1008.0
20260508024552 12 143 1.6 1.6 0.00 0.00 0.00 96 1008.0
20260508023052 12 143 1.6 1.6 0.00 0.00 0.00 96 1008.0
20260508021552 12 143 1.6 1.6 0.00 0.00 0.00 96 1008.0
20260508020053 12 143 1.6 1.6 0.00 0.00 0.00 96 1008.0
20260508014552 12 143 1.6 1.6 0.00 0.00 0.00 95 1008.0
20260508013052 12 143 1.6 1.6 0.00 0.00 0.00 95 1009.0
20260508011551 12 143 1.6 1.6 0.00 0.00 0.00 95 1009.0
20260508010052 12 143 1.6 1.6 0.00 0.00 0.00 95 1009.0
20260508004552 13 143 1.6 1.6 0.00 0.00 0.00 95 1009.0
20260508003052 13 143 1.6 1.6 0.00 0.00 0.00 95 1009.0
20260508000052 13 143 1.6 1.6 0.00 0.00 0.00 95 1010.0
20260507234552 13 143 1.6 1.6 0.00 0.00 0.00 94 1009.0
20260507233052 13 143 1.6 1.6 0.00 0.00 0.00 94 1009.0
20260507231552 13 143 1.6 1.6 0.00 0.00 0.00 94 1010.0
20260507230052 13 143 1.6 1.6 0.00 0.00 0.00 94 1010.0
20260507224552 13 143 1.6 1.6 0.00 0.00 0.00 94 1010.0
20260507223052 13 143 1.6 1.6 0.00 0.00 0.00 93 1010.0
20260507221552 13 143 3.2 3.2 0.00 0.00 0.00 93 1010.0
20260507220052 13 143 3.2 3.2 0.00 0.00 0.00 92 1010.0
20260507214552 14 108 1.6 1.6 0.00 0.00 0.00 92 1010.0
20260507213052 14 35 1.6 1.6 0.00 0.00 0.00 91 1010.0
20260507211552 14 108 1.6 1.6 0.00 0.00 0.00 91 1011.0
20260507210051 15 35 1.6 1.6 0.00 0.00 0.00 90 1011.0
20260507204552 14 108 3.2 3.2 0.00 0.00 0.00 90 1010.0
20260507203051 15 35 1.6 3.2 0.00 0.00 0.00 90 1010.0
20260507201552 15 108 3.2 3.2 0.00 0.00 0.00 91 1010.0
20260507200052 15 108 3.2 3.2 0.00 0.00 0.00 91 1010.0
20260507194552 16 83 1.6 1.6 0.00 0.00 0.00 88 1009.0
20260507193052 16 83 1.6 3.2 0.00 0.00 0.00 88 1009.0
20260507191637 16 83 1.6 3.2 0.00 0.00 0.00 90 1009.0
20260507191446 16 83 1.6 3.2 0.00 0.00 0.00 90 1009.0
20260507185946 16 83 3.2 6.4 0.00 0.00 0.00 90 1009.0
20260507184446 17 178 1.6 6.4 0.00 0.00 0.00 82 1009.0
20260507182946 17 178 3.2 9.7 0.00 0.00 0.00 79 1009.0
20260507181446 17 38 1.6 1.6 0.00 0.00 0.00 80 1009.0
20260507175946 17 38 1.6 3.2 0.00 0.00 0.00 80 1009.0
20260507174446 17 38 3.2 6.4 0.00 0.00 0.00 79 1008.0
20260507172946 17 59 4.8 11.3 0.00 0.00 0.00 78 1008.0
20260507171446 17 49 3.2 12.9 0.00 0.00 0.00 79 1008.0
20260507165946 17 59 8.0 17.7 0.00 0.00 0.00 80 1008.0
20260507164446 17 78 6.4 12.9 0.00 0.00 0.00 82 1008.0
20260507162946 16 86 6.4 19.3 0.00 0.00 0.00 83 1008.0
20260507161446 16 45 9.7 19.3 0.00 0.00 0.00 85 1009.0
20260507155946 16 58 11.3 14.5 0.00 0.00 0.00 84 1009.0
20260507154446 16 30 6.4 11.3 0.00 0.00 0.00 83 1008.0
20260507152947 16 15 9.7 16.1 0.00 0.00 0.00 82 1008.0
20260507151446 16 24 11.3 19.3 0.00 0.00 0.00 81 1009.0
20260507145946 16 47 6.4 11.3 0.00 0.00 0.00 81 1009.0
20260507144446 16 47 11.3 17.7 0.00 0.00 0.00 79 1008.0
20260507142946 16 24 11.3 17.7 0.00 0.00 0.00 78 1009.0
20260507141446 16 44 11.3 17.7 0.00 0.00 0.00 78 1009.0
20260507135946 16 51 9.7 17.7 0.00 0.00 0.00 76 1009.0
20260507134446 16 67 9.7 19.3 0.00 0.00 0.00 77 1009.0
20260507132946 16 74 11.3 19.3 0.00 0.00 0.00 75 1009.0
20260507131446 16 62 9.7 19.3 0.00 0.00 0.00 77 1009.0
20260507125946 16 61 9.7 20.9 0.00 0.00 0.00 79 1009.0
20260507124446 16 53 9.7 17.7 0.00 0.00 0.00 79 1009.0
20260507122946 16 55 11.3 19.3 0.00 0.00 0.00 79 1010.0
20260507121447 16 40 11.3 19.3 0.00 0.00 0.00 79 1010.0
20260507115946 16 36 11.3 19.3 0.00 0.00 0.00 80 1010.0
20260507114446 16 39 8.0 17.7 0.00 0.00 0.00 81 1010.0
20260507112946 16 43 9.7 17.7 0.00 0.00 0.00 80 1010.0
20260507111447 16 17 9.7 17.7 0.00 0.00 0.00 81 1010.0
20260507105946 16 41 9.7 17.7 0.00 0.00 0.00 82 1010.0
20260507104447 15 52 6.4 14.5 0.00 0.00 0.00 82 1010.0
20260507102946 15 19 9.7 16.1 0.00 0.00 0.00 82 1010.0
20260507101446 15 29 8.0 14.5 0.00 0.00 0.00 82 1010.0
20260507095947 15 24 9.7 14.5 0.00 0.00 0.00 81 1011.0
20260507094447 15 49 6.4 14.5 0.00 0.00 0.00 81 1010.0
20260507092946 15 53 6.4 11.3 0.00 0.00 0.00 81 1011.0
20260507091446 15 50 6.4 11.3 0.00 0.00 0.00 81 1011.0
20260507085946 15 46 3.2 11.3 0.00 0.00 0.00 83 1011.0
20260507084446 15 80 4.8 9.7 0.00 0.00 0.00 83 1011.0
20260507082946 14 79 1.6 3.2 0.00 0.00 0.00 86 1011.0
20260507081446 13 79 3.2 4.8 0.00 0.00 0.00 87 1011.0
20260507075946 13 79 3.2 4.8 0.00 0.00 0.00 90 1011.0
20260507074446 11 232 1.6 3.2 0.00 0.00 0.00 92 1011.0
20260507072946 11 232 1.6 3.2 0.00 0.00 0.00 93 1011.0